Volver al catálogo

STARLINK-34900

ActivoComunicacionesVLEO
NORAD 65374·PAYLOAD·🇺🇸 United States

Lanzado Aug 28, 2025 desde Cape Canaveral Space Force Station

Loading…

Próximos Pases (próximas 24 horas)

TLE

ActualizadoSource: CelesTrak SupGP

Época: Sep 14, 2026, 21:17 UTC

1 65374C 25190Z   26257.88729167  .00009694  00000+0  28651-3 0  2571
2 65374  53.1603   8.2042 0001145  78.9746 102.6138 15.34374568    11

Sigue STARLINK-34900 en tiempo real con AllMySat

Download on the App Store